Weather WX

World > North America > United States > Ohio

Kingston, Ohio Regional Weather

Lat: 39.47N, Lon: 82.91W
Wx Zone: OHZ064
Feedback

Kingston, OH Regional Weather

Expires:201906251800;;062175
ASUS41 KCLE 251712
RWRCLE
OHIO REGIONAL WEATHER ROUNDUP
NATIONAL WEATHER SERVICE WILMINGTON, OH
100 PM EDT TUE JUN 25 2019

NOTE: "FAIR" INDICATES FEW OR NO CLOUDS BELOW 12,000 FEET WITH NO
SIGNIFICANT WEATHER AND/OR OBSTRUCTIONS TO VISIBILITY.


OHZ036-037-039>041-045>050-054>059-063>069-073>076-082>088-251800-
  CENTRAL AND SOUTHEAST OHIO
  
CITY           SKY/WX    TMP DP  RH WIND       PRES   REMARKS
COLUMBUS       FAIR      80  58  46 W16       30.00R                  
OSU AIRPORT    FAIR      79  62  56 W10G21    30.00R                  
BOLTON FIELD   PTSUNNY   79  63  57 W14G22    30.02R                  
RICKENBACK AFB PTSUNNY   78  61  55 W13G21    30.01R                  
NEWARK         FAIR      82  61  48 W10       29.99R                  
MARION         FAIR      79  59  50 W14G22    29.99S                  
LANCASTER      FAIR      78  61  55 W8        30.01S                  
ZANESVILLE     PTSUNNY   79  62  56 W10       30.00R                  
NEW PHILLY     PTSUNNY   78  59  51 SW9G20    29.98R                  
$$
  

SKY/WX - Weather  TMP - Temperature  DP - Dew Point  RH - Relative Humidity
WIND - Wind Direction/Speed PRES - Barometric Pressure VSB - Visibility
WCI - Wind Chill Index E13G22 Wind - East Wind 13 mph/Gusts of 22 mph